Regional Weather Roundup
Issued by NWS Northern Indiana

Home | Current Version | Previous Version | Graphics & Text | Print | Product List | Glossary On
Versions: 1 2 3 4 5 6 7 8 9 10 11 12 13 14 15 16 17 18 19 20 21 22 23 24 25 26 27 28 29 30 31 32 33 34 35 36 37 38 39 40 41 42 43 44 45 46 47 48 49 50
000
ASUS43 KIWX 040500
RWRIWX

KIWX WEATHER ROUNDUP
NATIONAL WEATHER SERVICE NORTHERN INDIANA
1200 AM EST WED MAR 04 2015

NOTE: "FAIR" INDICATES FEW OR NO CLOUDS BELOW 12,000 FEET WITH NO
SIGNIFICANT WEATHER AND/OR OBSTRUCTIONS TO VISIBILITY.

* THESE STATIONS ARE NOT UNDER NWS QUALITY CONTROL. THEY ALSO MAY NOT
  REPORT WEATHER SUCH AS PRECIPITATION OR FOG.

INZ001>027-040600-
NORTHERN INDIANA

CITY           SKY/WX    TMP DP  RH WIND       PRES   REMARKS
VALPARAISO     CLOUDY    34  25  69 NW16G23   29.84F WCI  23
SOUTH BEND     CLOUDY    33 N/A N/A NW15      29.83F WCI  23
GOSHEN         CLOUDY    34  28  79 W14       29.82R WCI  25
ANGOLA*        CLOUDY    34  28  80 NW9       29.78R WCI  26
FORT WAYNE     CLOUDY    34  30  85 W15       29.84R WCI  24
PERU/GRISSOM   CLOUDY    33  31  92 W10       29.85R WCI  25

$$
INZ028>050-040600-
CENTRAL INDIANA

CITY           SKY/WX    TMP DP  RH WIND       PRES   REMARKS
LAFAYETTE      CLOUDY    33  31  92 W6        29.89R WCI  28
KOKOMO*        CLOUDY    34  30  86 W12       29.87S WCI  25
MUNCIE*        CLOUDY    35  33  92 W10       29.86R WCI  27
INDIANAPOLIS   LGT RAIN  35  33  92 W8        29.88S FOG     WCI  29

$$
MIZ043>046-050>051-056>058-064>065-071>073-077>080-040600-
SOUTHWEST LOWER MICHIGAN

CITY           SKY/WX    TMP DP  RH WIND       PRES   REMARKS
BATTLE CREEK   CLOUDY    32  24  72 NW13      29.80R WCI  22
BENTON HARBOR  CLOUDY    31  26  82 W9        29.84R WCI  23
COLDWATER*     CLOUDY    33  27  80 W13G18    29.78S WCI  23
HILLSDALE*     CLOUDY    33  29  83 W14       29.76S WCI  24
HOLLAND        CLOUDY    31  23  72 W7        29.81S WCI  24
GRAND RAPIDS   CLOUDY    30  22  72 W14       29.79R WCI  19
KALAMAZOO        N/A    N/A N/A N/A MISG      29.81R
STURGIS*       CLOUDY    32  28  86 NW12G17   29.80R WCI  23
THREE RIVERS*  CLOUDY    33  27  81 NW12G21   29.81R WCI  24

$$
OHZ001>008-015>018-024>025-040600-
NORTHWEST OHIO

CITY           SKY/WX    TMP DP  RH WIND       PRES   REMARKS
DEFIANCE       CLOUDY    36  30  79 VRB7      29.82R
FINDLAY        CLOUDY    35  32  88 W17       29.82R WCI  25
TOLEDO EXPRESS CLOUDY    34  29  82 W10       29.79R WCI  26
TOLEDO METCALF CLOUDY    35  29  78 W14       29.80R WCI  26
LIMA           CLOUDY    36  32  85 W17       29.84R

$$
AND FOR LAKE MICHIGAN COASTAL AND OPEN LAKE BUOY OBSERVATIONS

STATION/POSITION TEMP    WIND        PRES    VSBY  WAVE
                 AIR SEA DIR/SP/G                  HT/PER
                 (F)     (DEG/KT/KT) (MB)    (MI)  (FT/S)
CALUMET HARBOR    33     270/  7/ 11 1009.9R
MICHIGAN CITY     33     260/ 13/ 15   N/A
SAINT JOSEPH      32     260/ 11/ 14 1011.2R

$$
&&



USA.gov is the U.S. government's official web portal to all federal, state and local government web resources and services.